Weather History for KOKV - December, 2013

Change the Weather History Date:

Sunday, December 29, 2013

  Actual Average (KMRB) Record (KMRB)
Temperature  
Mean Temperature 42 °F 31 °F  
Max Temperature 48 °F 40 °F 77 °F (1984)
Min Temperature 37 °F 23 °F 5 °F (1933)
Degree Days  
Heating Degree Days 22 34  
Month to date heating degree days 888  
Since 1 July heating degree days 1958  
Cooling Degree Days 0 0  
Month to date cooling degree days 0  
Year to date cooling degree days 895  
Moisture  
Dew Point 37 °F    
Average Humidity 80    
Maximum Humidity 100    
Minimum Humidity 40    
Precipitation  
Precipitation 1.02 in 0.07 in 1.17 in (2013)
Month to date precipitation 2.58  
Year to date precipitation 38.57  
Sea Level Pressure  
Sea Level Pressure 29.82 in    
Wind  
Wind Speed 5 mph (West)    
Max Wind Speed 22 mph    
Max Gust Speed 31 mph    
Visibility 8 miles    
Events Rain    
T = Trace of Precipitation, MM = Missing Value Source: NWS Daily Summary

Daily Weather History Graph

Daily Weather History Graph

Search for Another Location

Airport or City:

Trip Planner

Search our weather history database for the weather conditions in past years. The results will help you decide how hot, cold, wet, or windy it might be!

Date:

Astronomy

Dec. 29, 2013 Rise Set
Actual Time 7:31 AM EST 4:58 PM EST
Civil Twilight 7:01 AM EST 5:28 PM EST
Nautical Twilight 6:27 AM EST 6:01 PM EST
Astronomical Twilight 5:55 AM EST 6:34 PM EST
Moon 4:13 AM EST (12/29) 2:34 PM EST (12/29)
Length of Visible Light 10h 27m
Length of Day
9h 26m
Waning Crescent, 11% of the Moon is Illuminated
Dec 29
Waning Crescent
Jan 1
New
Jan 7
First Quarter
Jan 15
Full
Jan 24
Last Quarter

Hourly Weather History & Observations

Time (EST) Temp. Windchill Dew Point Humidity Pressure Visibility Wind Dir Wind Speed Gust Speed Precip Events Conditions
12:15 AM 46.4 °F 43.5 °F 23.0 °F 40% 30.09 in 10.0 mi SW 5.8 mph - N/A   Clear
12:35 AM 46.4 °F 45.2 °F 23.0 °F 40% 30.08 in 10.0 mi SSW 3.5 mph - N/A   Clear
12:55 AM 46.4 °F 45.2 °F 23.0 °F 40% 30.07 in 10.0 mi SW 3.5 mph - N/A   Clear
1:15 AM 44.6 °F 42.2 °F 23.0 °F 43% 30.07 in 10.0 mi SSW 4.6 mph - N/A   Clear
1:35 AM 46.4 °F 42.9 °F 23.0 °F 40% 30.06 in 10.0 mi SW 6.9 mph - N/A   Clear
1:55 AM 46.4 °F 44.3 °F 23.0 °F 40% 30.06 in 10.0 mi SW 4.6 mph - N/A   Clear
2:15 AM 44.6 °F 42.2 °F 23.0 °F 43% 30.06 in 10.0 mi WSW 4.6 mph - N/A   Mostly Cloudy
2:35 AM 44.6 °F 40.2 °F 23.0 °F 43% 30.06 in 10.0 mi WSW 8.1 mph - N/A   Overcast
2:55 AM 46.4 °F 42.9 °F 23.0 °F 40% 30.07 in 10.0 mi SSW 6.9 mph - N/A   Overcast
3:15 AM 46.4 °F 41.9 °F 26.6 °F 46% 30.07 in 10.0 mi SW 9.2 mph 17.3 mph N/A   Drizzle
3:35 AM 42.8 °F 38.6 °F 32.0 °F 66% 30.07 in 10.0 mi SW 6.9 mph - N/A Rain Rain
3:55 AM 41.0 °F 37.1 °F 33.8 °F 76% 30.05 in 7.0 mi SW 5.8 mph - 0.03 in Rain Rain
4:15 AM 41.0 °F - 35.6 °F 81% 30.05 in 10.0 mi Calm Calm - 0.02 in Rain Rain
4:35 AM 41.0 °F - 35.6 °F 81% 30.03 in 5.0 mi Calm Calm - 0.05 in Rain Rain
4:55 AM 39.2 °F - 37.4 °F 93% 30.02 in 4.0 mi Calm Calm - 0.08 in Rain Rain
5:15 AM 39.2 °F - 37.4 °F 93% 30.01 in 7.0 mi Calm Calm - 0.01 in Rain Rain
5:35 AM 39.2 °F - 37.4 °F 93% 30.00 in 7.0 mi Calm Calm - 0.02 in Rain Rain
5:55 AM 39.2 °F - 37.4 °F 93% 29.98 in 5.0 mi Calm Calm - 0.05 in Rain Rain
6:15 AM 39.2 °F - 37.4 °F 93% 29.96 in 4.0 mi Calm Calm - 0.02 in Rain Rain
6:35 AM 39.2 °F 37.0 °F 37.4 °F 93% 29.94 in 3.0 mi NNE 3.5 mph - 0.06 in Rain Heavy Rain
6:55 AM 39.2 °F - 37.4 °F 93% 29.94 in 3.0 mi Calm Calm - 0.10 in Rain Rain
7:15 AM 39.2 °F - 37.4 °F 93% 29.92 in 2.0 mi Calm Calm - 0.04 in Rain Light Rain
7:35 AM 39.2 °F - 37.4 °F 93% 29.90 in 1.8 mi Calm Calm - 0.08 in Rain Rain
7:55 AM 39.2 °F - 37.4 °F 93% 29.89 in 2.5 mi Calm Calm - 0.12 in Rain Heavy Rain
8:15 AM 39.2 °F - 37.4 °F 93% 29.88 in 0.8 mi Calm Calm - 0.05 in   Overcast
8:35 AM 39.2 °F - 37.4 °F 93% 29.88 in 1.0 mi Calm Calm - 0.11 in Rain Heavy Rain
8:55 AM 39.2 °F - 39.2 °F 100% 29.87 in 1.2 mi Calm Calm - 0.18 in Rain Heavy Rain
9:15 AM 41.0 °F - 39.2 °F 93% 29.85 in 1.0 mi Calm Calm - 0.07 in Rain Light Rain
9:35 AM 41.0 °F - 39.2 °F 93% 29.85 in 1.0 mi Calm Calm - 0.15 in   Overcast
9:55 AM 41.0 °F 37.1 °F 39.2 °F 93% 29.83 in 1.2 mi NW 5.8 mph - 0.24 in Rain Light Rain
10:15 AM 41.0 °F 37.1 °F 41.0 °F 100% 29.82 in 2.0 mi NNW 5.8 mph - 0.04 in Rain Heavy Rain
10:35 AM 41.0 °F 36.4 °F 41.0 °F 100% 29.82 in 2.5 mi NW 6.9 mph - 0.10 in Rain Rain
10:55 AM 41.0 °F 38.0 °F 41.0 °F 100% 29.77 in 3.0 mi North 4.6 mph - 0.14 in Rain Rain
11:15 AM 42.8 °F 40.1 °F 41.0 °F 93% 29.77 in 4.0 mi NNW 4.6 mph - 0.01 in Rain Rain
11:35 AM 42.8 °F 41.1 °F 41.0 °F 93% 29.73 in 4.0 mi North 3.5 mph - 0.04 in Rain Heavy Rain
11:55 AM 42.8 °F 40.1 °F 42.8 °F 100% 29.68 in 3.0 mi East 4.6 mph - 0.06 in Rain Rain
12:15 PM 42.8 °F - 42.8 °F 100% 29.65 in 4.0 mi Calm Calm - N/A Rain Light Rain
12:35 PM 42.8 °F 41.1 °F 42.8 °F 100% 29.62 in 10.0 mi NNE 3.5 mph - N/A   Overcast
12:55 PM 42.8 °F - 42.8 °F 100% 29.60 in 10.0 mi Calm Calm - N/A Rain Light Rain
1:15 PM 42.8 °F - 42.8 °F 100% 29.61 in 5.0 mi Calm Calm - 0.01 in Rain Light Rain
1:35 PM 42.8 °F - 42.8 °F 100% 29.59 in 10.0 mi Calm Calm - 0.01 in   Light Drizzle
1:55 PM 44.6 °F 41.4 °F 42.8 °F 93% 29.62 in 10.0 mi West 5.8 mph - 0.01 in   Light Drizzle
2:15 PM 44.6 °F 42.2 °F 42.8 °F 93% 29.61 in 10.0 mi West 4.6 mph - N/A Rain Rain
2:35 PM 44.6 °F 41.4 °F 42.8 °F 93% 29.60 in 7.0 mi WSW 5.8 mph - N/A Rain Rain
2:55 PM 44.6 °F 41.4 °F 42.8 °F 93% 29.58 in 7.0 mi West 5.8 mph - N/A Rain Rain
3:15 PM 46.4 °F 42.4 °F 44.6 °F 93% 29.58 in 10.0 mi West 8.1 mph - 0.01 in   Light Drizzle
3:35 PM 46.4 °F 42.9 °F 44.6 °F 93% 29.59 in 10.0 mi WSW 6.9 mph - 0.01 in   Mostly Cloudy
3:55 PM 44.6 °F 40.7 °F 42.8 °F 93% 29.60 in 10.0 mi WSW 6.9 mph - 0.01 in   Overcast
4:15 PM 44.6 °F 41.4 °F 42.8 °F 93% 29.61 in 10.0 mi WSW 5.8 mph - N/A   Overcast
4:35 PM 46.4 °F 41.1 °F 42.8 °F 87% 29.62 in 10.0 mi WSW 11.5 mph - N/A   Overcast
4:55 PM 46.4 °F 40.4 °F 42.8 °F 87% 29.63 in 10.0 mi West 13.8 mph 20.7 mph N/A   Overcast
5:15 PM 46.4 °F 40.4 °F 41.0 °F 81% 29.64 in 10.0 mi West 13.8 mph 18.4 mph N/A   Overcast
5:35 PM 48.2 °F - 39.2 °F 71% 29.66 in 10.0 mi WNW 21.9 mph 31.1 mph N/A   Overcast
5:55 PM 48.2 °F - 37.4 °F 66% 29.68 in 10.0 mi West 20.7 mph 28.8 mph N/A   Overcast
6:15 PM 46.4 °F 40.4 °F 37.4 °F 71% 29.71 in 10.0 mi WNW 13.8 mph 19.6 mph N/A   Overcast
6:35 PM 46.4 °F 40.7 °F 35.6 °F 66% 29.73 in 10.0 mi WNW 12.7 mph 26.5 mph N/A   Overcast
6:55 PM 44.6 °F 38.1 °F 35.6 °F 71% 29.73 in 10.0 mi NW 13.8 mph 24.2 mph N/A   Overcast
7:15 PM 44.6 °F 37.8 °F 35.6 °F 71% 29.75 in 10.0 mi NW 15.0 mph 24.2 mph N/A   Overcast
7:35 PM 44.6 °F 38.4 °F 35.6 °F 71% 29.78 in 10.0 mi WNW 12.7 mph 26.5 mph N/A   Overcast
7:55 PM 44.6 °F 39.7 °F 35.6 °F 71% 29.77 in 10.0 mi NW 9.2 mph - N/A   Overcast
8:15 PM 44.6 °F 39.2 °F 35.6 °F 71% 29.77 in 10.0 mi NW 10.4 mph 16.1 mph N/A   Overcast
8:35 PM 44.6 °F 39.7 °F 35.6 °F 71% 29.78 in 10.0 mi NW 9.2 mph - N/A   Overcast
8:55 PM 44.6 °F 41.4 °F 37.4 °F 76% 29.80 in 10.0 mi WNW 5.8 mph - N/A   Overcast
9:15 PM 44.6 °F 40.7 °F 35.6 °F 71% 29.79 in 10.0 mi WNW 6.9 mph - N/A   Overcast
9:35 PM 44.6 °F 40.7 °F 35.6 °F 71% 29.80 in 10.0 mi West 6.9 mph - N/A   Scattered Clouds
9:55 PM 41.0 °F - 35.6 °F 81% 29.80 in 10.0 mi Calm Calm - N/A   Scattered Clouds
10:15 PM 41.0 °F - 35.6 °F 81% 29.80 in 10.0 mi Calm Calm - N/A   Clear
10:35 PM 37.4 °F - 33.8 °F 87% 29.80 in 10.0 mi Calm Calm - N/A   Scattered Clouds
10:55 PM 37.4 °F 32.8 °F 35.6 °F 93% 29.81 in 10.0 mi South 5.8 mph - N/A   Mostly Cloudy
11:15 PM 42.8 °F 38.0 °F 35.6 °F 76% 29.82 in 10.0 mi SW 8.1 mph - N/A   Overcast
11:35 PM 44.6 °F 39.7 °F 35.6 °F 71% 29.83 in 10.0 mi SW 9.2 mph - N/A   Overcast
11:55 PM 44.6 °F 39.7 °F 35.6 °F 71% 29.82 in 10.0 mi WSW 9.2 mph - N/A   Overcast